Location: Bacea
(45.9500°N, 22.6667°E)
Time: 05:42:55
(UTC+00:00)

Cosmos 1953 - Pass Details

Date: 30 May 2022
Orbit: 533 x 555 km, 82.5° (Epoch: 03 July)

Event Time Altitude Azimuth Distance (km) Brightness Sun altitude
Rises 23:15:20 0° 340° (NNW) 2,720 6.8 -21.3°
Reaches altitude 10° 23:17:44 10° 328° (NNW) 1,817 5.6 -21.2°
Enters shadow 23:21:05 27° 271° (W) 1,063 3.6 -21.1°
